星链-1235 (STARLINK-1235 )

导读

STARLINK-1235是美国太空探索技术公司(SpaceX)星链计划中的一颗卫星,于2020年2月17日发射。星链计划旨在构建全球卫星互联网星座,该卫星作为星链组网卫星之一,运行在近地轨道,为全球范围内提供低延迟宽带互联网接入服务,助力星链星座逐步实现全球网络覆盖目标。

基本信息
目录编号:
45232
目录名称:
STARLINK-1235
国际标识:
2020-012BG
轨道中心:
EARTH
卫星名称:
星链-1235
卫星全名:
星链-1235 (STARLINK-1235 )
卫星状态:
已陨落 最后检测时间 2025-04-10
发射日期:
2020-02-17 UTC
国别 :
美国 (US)
星等 :
--
该卫星已列入 空间交会检测服务 Space Conjunction Data Service (SCDS) ,当前飞行风险评估等级: 无高风险
轨道信息
数据来源 国际轨道数据
星历时间: 2025-04-11T01:34:22+0800
轨道信息已过期521天
半长轴: 6525.517km
偏心率: 0.000578
轨道倾角: 53.014°
近地点辐角 262.630°
升交点赤经 312.562°
平近点角 144.657°
近地点: 143.61km
远地点: 151.154km
周期: 87.434分钟
每日圈数: 16.469502
详细信息
固有亮度:
5
最大亮度:
2.5
卫星平台:
Starlink V1.0
覆盖范围:
全球
运营商:
太空探索技术公司
运营商所在国:
美国
制造商(研发单位):
太空探索技术公司
制造商所在国:
美国
使用方式:
暂无
卫星简介
星链(Starlink)计划是由太空探索技术公司(SpaceX)提出的一个巨型低轨卫星互联网星座项目,计划在2019年至2024年间在太空搭建由约1.2万颗卫星组成的“星链”网络,其中1584颗将部署在地球上空550千米处的近地轨道,并从2020年开始工作。该卫星仍在工作。
与全量物体交会距离演化趋势
与全量物体交会风险概率演化趋势